{"data":{"norad_id":59010,"epoch":"2026-05-25T03:27:59.360256Z","epoch_age_seconds":58418,"freshness":"FRESH","line1":"1 59010U 24036N   26145.14443704 -.00002228  00000+0 -63172-4 0  9993","line2":"2 59010  53.1615  83.3713 0001498  92.2366 267.8807 15.30170150127026","mean_motion":15.3017015,"eccentricity":0.0001498,"inclination_deg":53.1615,"raan_deg":83.3713,"arg_perigee_deg":92.2366,"mean_anomaly_deg":267.8807,"bstar":-6.3172e-5,"rev_number":12702,"period_min":94.107181479132,"perigee_km":474.2775520963,"apogee_km":476.3308430791,"semimajor_km":6853.4411975877,"source":"CELESTRAK","updated_at":"2026-05-25T13:38:18.799812Z"}}